This is the latest recevied weather packets stored in our database for station/object WP3XM. If no packets are shown the sender has not sent any weather packets the latest 1 day(s).
| Time | Temp. | Humidity | Pressure | Rain* | Wind** | Luminosity | Snow |
|---|---|---|---|---|---|---|---|
| 1777990805 | 28.89° C | 76% | 1019.3 hPa | 0 mm | 4.47 m/s, 87° | 202 W/m² | - |
| 1777990502 | 28.89° C | 76% | 1019.3 hPa | 0 mm | 2.68 m/s, 131° | 216 W/m² | - |
| 1777990199 | 28.33° C | 78% | 1019.3 hPa | 0 mm | 3.13 m/s, 121° | 335 W/m² | - |
| 1777989895 | 27.78° C | 78% | 1019.3 hPa | 0 mm | 3.13 m/s, 133° | 294 W/m² | - |
| 1777989592 | 28.33° C | 78% | 1019.2 hPa | 0 mm | 2.68 m/s, 91° | 220 W/m² | - |
| 1777989289 | 28.33° C | 77% | 1019.3 hPa | 0 mm | 3.13 m/s, 83° | 247 W/m² | - |
| 1777988985 | 27.78° C | 79% | 1019.1 hPa | 0 mm | 4.02 m/s, 76° | 293 W/m² | - |
| 1777988682 | 28.33° C | 79% | 1019.2 hPa | 0 mm | 4.02 m/s, 107° | 189 W/m² | - |
| 1777988378 | 28.33° C | 77% | 1019.2 hPa | 0 mm | 2.68 m/s, 110° | 205 W/m² | - |
| 1777988076 | 28.33° C | 78% | 1019.2 hPa | 0 mm | 4.92 m/s, 105° | 252 W/m² | - |
| 1777987771 | 28.33° C | 79% | 1019.1 hPa | 0 mm | 4.02 m/s, 87° | 910 W/m² | - |
| 1777987468 | 27.78° C | 80% | 1019.1 hPa | 0 mm | 2.68 m/s, 85° | 289 W/m² | - |
| 1777987166 | 27.78° C | 79% | 1018.9 hPa | 0 mm | 3.13 m/s, 89° | 801 W/m² | - |
| 1777986862 | 28.33° C | 78% | 1019.1 hPa | 0 mm | 2.68 m/s, 72° | 854 W/m² | - |
| 1777986560 | 27.78° C | 79% | 1019.3 hPa | 0 mm | 2.24 m/s, 124° | 783 W/m² | - |
| 1777986258 | 27.78° C | 78% | 1019 hPa | 0 mm | 4.02 m/s, 127° | 206 W/m² | - |
| 1777985955 | 28.33° C | 79% | 1019.1 hPa | 0 mm | 5.36 m/s, 102° | 266 W/m² | - |
| 1777985653 | 28.33° C | 80% | 1019 hPa | 0 mm | 2.24 m/s, 84° | 210 W/m² | - |
| 1777985349 | 27.78° C | 80% | 1018.9 hPa | 0 mm | 3.58 m/s, 168° | 228 W/m² | - |
| 1777985046 | 27.78° C | 80% | 1019 hPa | 0 mm | 4.02 m/s, 94° | 449 W/m² | - |
| 1777984742 | 27.78° C | 81% | 1018.9 hPa | 0 mm | 3.58 m/s, 107° | 295 W/m² | - |
| 1777984439 | 28.33° C | 81% | 1018.9 hPa | 0 mm | 1.79 m/s, 105° | 199 W/m² | - |
| 1777984134 | 28.33° C | 81% | 1018.9 hPa | 0 mm | 1.79 m/s, 106° | 678 W/m² | - |
| 1777983832 | 27.78° C | 82% | 1018.9 hPa | 0 mm | 2.24 m/s, 172° | 601 W/m² | - |
| 1777983529 | 27.78° C | 82% | 1018.7 hPa | 0 mm | 1.79 m/s, 80° | 207 W/m² | - |
* Rain latest hour (hover to see other rain measurements)
** Current wind speed in m/s (hover to see current wind gust speed)